Starlink 30497

operational
NORAD ID: 58011 Int'l Des: 2023-153 Owner: SPXS Country: US Constellation: starlink
LEOCIRCULAR

About Starlink 30497

Description loading...

Live Position

Loading 3D Globe...

Upcoming Passes

Altitude History

Altitude vs Time

uPlot chart will show altitude changes over time

Two-Line Element Set

1 58011U 23153W 25303.74898461 .00000132 00000-0 24834-4 0 9990
2 58011 43.0032 55.3299 0001457 260.8676 99.2001 15.02534728115324
Epoch: Oct 30, 2025 • Age: 7 hours

Current Status

Altitude 560.9 km
Velocity 7.58 km/s
Sub-Earth Point -12.77°S, 170.5°W
Launch Date Oct 5, 2023
Age 2 years
Type internet

Technical Details

Classification Payload
Mass 730.00 kg
Dry Mass 700.00 kg
Total Mass 730.00 kg
Length 0.30 m
Diameter 4.10 m
Span 29.00 m
Shape Box + pan
Manufacturer SPXS
Bus Type Starlink V2M
Phase Status In Orbit
Owner/State SPXS/US

Large Constellations

Loading constellations...